Home > Time Zones > World Clock > Weather > Peru > Lima > Past weeks

Flag for Peru Weather past 2 weeks in Lima, Lima, Peru

Now
61 °F

Overcast.


Feels Like: 61 °F
Forecast: N/A
Wind: 13 mph from Southeast

Location: Lima-Callao / Aerop. Internacional Jorgechavez

Current Time: Jul 25, 2014 at 6:44:44 PM

Latest Report: Jul 25, 2014 at 6:00 PM


Visibility: 5 mi

Pressure: 29.95 "Hg

Humidity: 83%

Dew point: 55 °F

Location of LimaLocation

Historic Weather in Lima — Graph

°F

Lima temperature yesterday

Maximum temperature yesterday: 63 °F (at 11:00 AM)
Minimum temperature yesterday: 59 °F (at 7:00 AM)
Average temperature yesterday: 60 °F

Past Weeks' High & Low Weather Summary

 TemperatureHumidityPressure
High68 °F (Jul 21, 2:00 PM)94% (Jul 10, 11:00 PM)30.04 "Hg (Jul 10, 11:00 PM)
Low59 °F (Jul 22, 4:00 AM)68% (Jul 15, 7:00 PM)29.86 "Hg (Jul 11, 4:00 AM)
Average62 °F84%29.95 "Hg
* Reported Jul 10 5:00 PM — Jul 25 5:00 PM, Lima, Weather by CustomWeather, © 2014

Note: Actual official high and low records may vary slightly from our data, if they occured in-between our weather recording intervals... More about our weather records

Advertising

Lima weather history for previous 24 hours

 ConditionsComfort  
Time TempWeatherWind HumidityBarometerVisibility
5:00 PM
Jul 25
61 °FOvercast.14 mph83%29.95 "HgN/A
4:00 PM61 °FOvercast.13 mph83%29.95 "HgN/A
3:00 PM61 °FOvercast.9 mph88%29.95 "HgN/A
2:00 PM63 °FMostly cloudy.10 mph83%29.98 "HgN/A
1:00 PM63 °FOvercast.5 mph83%30.01 "HgN/A
12:00 PM61 °FOvercast.5 mph88%30.04 "HgN/A
11:00 AM61 °FMostly cloudy.7 mph88%30.04 "Hg5 mi
10:00 AM61 °FMore clouds than sun.2 mph88%30.04 "HgN/A
9:00 AM61 °FOvercast.3 mph88%30.01 "HgN/A
8:00 AM61 °FOvercast.5 mph88%29.98 "HgN/A
7:00 AM59 °FOvercast.5 mph94%29.95 "HgN/A
6:00 AM59 °FOvercast.5 mph94%29.92 "HgN/A
5:00 AM61 °FMostly cloudy.5 mph88%29.89 "HgN/A
4:00 AM59 °FOvercast.3 mph88%29.89 "HgN/A
3:00 AM59 °FOvercast.6 mph88%29.89 "HgN/A
2:00 AM61 °FOvercast.7 mph83%29.92 "HgN/A
1:00 AM59 °FOvercast.8 mph88%29.92 "HgN/A
12:00 AM59 °FOvercast.8 mph88%29.95 "HgN/A
11:00 PM
Jul 24
61 °FMostly cloudy.10 mph83%29.95 "HgN/A
10:00 PM61 °FOvercast.8 mph83%29.95 "HgN/A
9:00 PM59 °FMostly cloudy.9 mph88%29.95 "HgN/A
8:00 PM59 °FOvercast.9 mph94%29.95 "HgN/A
7:00 PM59 °FMostly cloudy.10 mph94%29.92 "HgN/A
6:00 PM59 °FDrizzle. Mostly cloudy.9 mph94%29.92 "Hg6 mi
Weather by CustomWeather, © 2014

See weather overviewHow to use our weather pages